�������l�o���
Date,Time,MP-1(��Sv/h),MP-2(��Sv/h),MP-3(��Sv/h),MP-4(��Sv/h),MP-5(��Sv/h),MP-6(��Sv/h),MP-7(��Sv/h),MP-8(��Sv/h),����,����(m/s),���J
2018/01/20,00:00,0.864,1.444,0.911,1.707,1.156,0.481,0.860,0.831,�k�k��,4.3,��
2018/01/20,00:10,0.865,1.439,0.908,1.709,1.153,0.483,0.862,0.830,�k�k��,4.3,��
2018/01/20,00:20,0.864,1.443,0.910,1.708,1.153,0.483,0.861,0.830,�k�k��,4.6,��
2018/01/20,00:30,0.863,1.443,0.910,1.708,1.154,0.483,0.862,0.831,�k�k��,4.5,��
2018/01/20,00:40,0.865,1.441,0.909,1.709,1.155,0.481,0.862,0.829,�k�k��,4.3,��
2018/01/20,00:50,0.864,1.440,0.909,1.709,1.154,0.482,0.861,0.830,�k�k��,3.9,��
2018/01/20,01:00,0.865,1.440,0.910,1.710,1.152,0.480,0.862,0.831,�k�k��,3.9,��
2018/01/20,01:10,0.865,1.444,0.909,1.708,1.150,0.483,0.862,0.829,�k�k��,3.9,��
2018/01/20,01:20,0.866,1.442,0.909,1.705,1.153,0.483,0.861,0.829,�k�k��,3.8,��
2018/01/20,01:30,0.866,1.441,0.909,1.704,1.150,0.483,0.862,0.830,�k�k��,4.3,��
2018/01/20,01:40,0.865,1.445,0.909,1.709,1.153,0.482,0.860,0.829,�k�k��,4.0,��
2018/01/20,01:50,0.865,1.441,0.908,1.709,1.152,0.483,0.862,0.831,�k�k��,3.8,��
2018/01/20,02:00,0.865,1.440,0.908,1.710,1.151,0.482,0.860,0.829,�k�k��,3.6,��
2018/01/20,02:10,0.866,1.442,0.909,1.709,1.151,0.482,0.862,0.829,�k�k��,4.1,��
2018/01/20,02:20,0.865,1.443,0.909,1.712,1.152,0.482,0.862,0.831,�k�k��,4.3,��
2018/01/20,02:30,0.863,1.444,0.910,1.707,1.153,0.482,0.862,0.828,�k�k��,4.7,��
2018/01/20,02:40,0.866,1.444,0.909,1.709,1.153,0.483,0.863,0.829,�k�k��,4.5,��
2018/01/20,02:50,0.865,1.442,0.908,1.709,1.154,0.484,0.862,0.830,�k�k��,5.0,��
2018/01/20,03:00,0.864,1.445,0.909,1.710,1.151,0.483,0.863,0.831,�k�k��,4.6,��
2018/01/20,03:10,0.865,1.440,0.910,1.707,1.150,0.481,0.862,0.831,�k�k��,5.1,��
2018/01/20,03:20,0.865,1.440,0.908,1.708,1.151,0.483,0.863,0.830,�k�k��,5.4,��
2018/01/20,03:30,0.865,1.441,0.910,1.709,1.154,0.482,0.864,0.831,�k�k��,5.4,��
2018/01/20,03:40,0.863,1.441,0.908,1.708,1.152,0.481,0.864,0.830,�k�k��,5.6,��
2018/01/20,03:50,0.865,1.443,0.908,1.706,1.153,0.482,0.864,0.830,�k��,5.4,��
2018/01/20,04:00,0.864,1.441,0.909,1.711,1.153,0.482,0.864,0.831,�k��,5.9,��
2018/01/20,04:10,0.864,1.440,0.909,1.709,1.151,0.482,0.863,0.830,�k�k��,6.0,��
2018/01/20,04:20,0.865,1.442,0.911,1.708,1.153,0.483,0.863,0.831,�k�k��,6.9,��
2018/01/20,04:30,0.862,1.443,0.910,1.710,1.153,0.481,0.863,0.830,�k�k��,6.3,��
2018/01/20,04:40,0.865,1.443,0.910,1.710,1.153,0.481,0.863,0.830,�k�k��,6.1,��
2018/01/20,04:50,0.865,1.444,0.909,1.710,1.152,0.482,0.862,0.829,�k�k��,6.0,��
2018/01/20,05:00,0.866,1.441,0.910,1.709,1.153,0.483,0.863,0.831,�k��,5.8,��
2018/01/20,05:10,0.863,1.442,0.911,1.709,1.151,0.482,0.863,0.830,�k�k��,5.0,��
2018/01/20,05:20,0.865,1.442,0.910,1.706,1.152,0.483,0.865,0.829,�k�k��,5.3,��
2018/01/20,05:30,0.861,1.442,0.908,1.708,1.153,0.482,0.864,0.831,�k�k��,5.0,��
2018/01/20,05:40,0.863,1.443,0.908,1.708,1.151,0.481,0.860,0.829,�k�k��,4.9,��
2018/01/20,05:50,0.864,1.443,0.909,1.709,1.155,0.481,0.861,0.829,�k�k��,4.0,��
2018/01/20,06:00,0.862,1.442,0.908,1.708,1.151,0.483,0.861,0.829,�k�k��,4.2,��
2018/01/20,06:10,0.864,1.441,0.908,1.704,1.150,0.481,0.860,0.830,�k�k��,3.4,��
2018/01/20,06:20,0.864,1.441,0.907,1.705,1.151,0.482,0.861,0.829,�k�k��,2.8,��
2018/01/20,06:30,0.864,1.439,0.907,1.709,1.149,0.481,0.862,0.829,�k��,2.8,��
2018/01/20,06:40,0.864,1.438,0.909,1.707,1.150,0.481,0.862,0.830,�k�k��,2.3,��
2018/01/20,06:50,0.865,1.439,0.909,1.708,1.151,0.482,0.862,0.830,�k�k��,2.5,��
2018/01/20,07:00,0.863,1.441,0.911,1.708,1.150,0.481,0.861,0.829,�k��,1.7,��
2018/01/20,07:10,0.862,1.440,0.908,1.707,1.152,0.482,0.863,0.831,�k�k��,1.9,��
2018/01/20,07:20,0.862,1.441,0.908,1.708,1.148,0.483,0.863,0.831,�k�k��,2.3,��
2018/01/20,07:30,0.862,1.441,0.907,1.707,1.151,0.484,0.861,0.831,�k�k��,2.2,��
2018/01/20,07:40,0.861,1.441,0.908,1.708,1.152,0.482,0.861,0.830,�k�k��,1.2,��
2018/01/20,07:50,0.863,1.442,0.907,1.706,1.151,0.481,0.860,0.829,�k�k��,0.8,��
2018/01/20,08:00,0.863,1.439,0.907,1.707,1.151,0.484,0.863,0.830,�k��,1.1,��
2018/01/20,08:10,0.866,1.440,0.908,1.708,1.151,0.481,0.862,0.830,�k��,1.2,��
2018/01/20,08:20,0.865,1.441,0.909,1.710,1.152,0.482,0.861,0.830,�k��,0.6,��
2018/01/20,08:30,0.867,1.439,0.910,1.708,1.153,0.482,0.865,0.830,��,0.6,��
2018/01/20,08:40,0.864,1.444,0.910,1.708,1.151,0.481,0.863,0.832,��,0.6,��
2018/01/20,08:50,0.866,1.439,0.909,1.705,1.154,0.483,0.862,0.830,�k,0.6,��
2018/01/20,09:00,0.868,1.443,0.907,1.705,1.153,0.481,0.864,0.831,�k�k��,0.6,��
2018/01/20,09:10,0.866,1.443,0.911,1.706,1.154,0.483,0.863,0.832,�k,0.9,��
2018/01/20,09:20,0.868,1.440,0.910,1.706,1.154,0.481,0.865,0.830,�k��,1.1,��
2018/01/20,09:30,0.867,1.442,0.910,1.708,1.156,0.483,0.865,0.831,���쓌,0.9,��
2018/01/20,09:40,0.867,1.442,0.910,1.707,1.155,0.483,0.865,0.831,���쓌,1.2,��
2018/01/20,09:50,0.868,1.444,0.910,1.710,1.156,0.483,0.866,0.832,�쓌,1.5,��
2018/01/20,10:00,0.866,1.446,0.911,1.711,1.155,0.483,0.866,0.830,�쓌,2.0,��
2018/01/20,10:10,0.866,1.448,0.911,1.708,1.155,0.483,0.862,0.832,�쓌,2.0,��
2018/01/20,10:20,0.864,1.444,0.910,1.710,1.153,0.485,0.862,0.832,���쓌,2.5,��
2018/01/20,10:30,0.864,1.445,0.911,1.712,1.157,0.484,0.864,0.832,���쓌,3.1,��
2018/01/20,10:40,0.864,1.444,0.911,1.710,1.154,0.484,0.863,0.833,���쓌,3.3,��
2018/01/20,10:50,0.869,1.442,0.911,1.712,1.155,0.485,0.862,0.831,���쓌,3.5,��
2018/01/20,11:00,0.869,1.442,0.909,1.711,1.156,0.485,0.862,0.830,�쓌,3.2,��
2018/01/20,11:10,0.870,1.441,0.911,1.713,1.157,0.483,0.864,0.831,�쓌,4.1,��
2018/01/20,11:20,0.868,1.443,0.911,1.712,1.157,0.483,0.864,0.831,�쓌,4.2,��
2018/01/20,11:30,0.871,1.447,0.913,1.710,1.156,0.483,0.863,0.833,�쓌,3.9,��
2018/01/20,11:40,0.870,1.444,0.913,1.713,1.156,0.485,0.865,0.832,�쓌,4.8,��
2018/01/20,11:50,0.870,1.444,0.912,1.712,1.157,0.483,0.864,0.833,��쓌,4.9,��
2018/01/20,12:00,0.870,1.444,0.911,1.712,1.158,0.484,0.864,0.833,��쓌,6.0,��
2018/01/20,12:10,0.872,1.444,0.914,1.714,1.158,0.485,0.864,0.833,��쓌,4.9,��
2018/01/20,12:20,0.873,1.447,0.913,1.712,1.160,0.485,0.863,0.831,��쓌,5.4,��
2018/01/20,12:30,0.873,1.444,0.914,1.711,1.159,0.485,0.864,0.833,��쓌,6.4,��
2018/01/20,12:40,0.871,1.446,0.914,1.715,1.157,0.486,0.866,0.832,��쓌,7.1,��
2018/01/20,12:50,0.872,1.449,0.914,1.712,1.157,0.486,0.863,0.835,��쓌,6.4,��
2018/01/20,13:00,0.874,1.449,0.915,1.713,1.159,0.484,0.866,0.834,��쓌,6.1,��
2018/01/20,13:10,0.873,1.451,0.914,1.714,1.159,0.486,0.864,0.833,��쓌,5.9,��
2018/01/20,13:20,0.874,1.447,0.917,1.716,1.160,0.486,0.865,0.834,��쓌,7.1,��
2018/01/20,13:30,0.873,1.452,0.914,1.712,1.158,0.486,0.867,0.834,��쓌,7.7,��
2018/01/20,13:40,0.873,1.445,0.917,1.713,1.158,0.486,0.866,0.832,��쓌,8.8,��
2018/01/20,13:50,0.873,1.449,0.916,1.716,1.159,0.487,0.866,0.832,��쓌,8.4,��
2018/01/20,14:00,0.873,1.452,0.916,1.717,1.159,0.486,0.866,0.830,��쓌,8.3,��
2018/01/20,14:10,0.875,1.450,0.915,1.716,1.162,0.487,0.867,0.831,��쓌,8.4,��
2018/01/20,14:20,0.873,1.452,0.916,1.716,1.163,0.488,0.866,0.830,��쓌,9.2,��
2018/01/20,14:30,0.875,1.448,0.915,1.716,1.161,0.486,0.867,0.831,��쓌,8.4,��
2018/01/20,14:40,0.875,1.451,0.914,1.716,1.160,0.486,0.866,0.832,��쓌,9.1,��
2018/01/20,14:50,0.877,1.451,0.916,1.715,1.161,0.486,0.868,0.833,��쓌,9.4,��
2018/01/20,15:00,0.873,1.450,0.916,1.713,1.162,0.488,0.867,0.831,��쓌,8.9,��
2018/01/20,15:10,0.874,1.454,0.915,1.715,1.163,0.488,0.868,0.834,��쓌,10.2,��
2018/01/20,15:20,0.874,1.454,0.918,1.713,1.162,0.487,0.867,0.833,��쓌,9.2,��
2018/01/20,15:30,0.874,1.452,0.916,1.715,1.161,0.488,0.866,0.833,��쓌,8.6,��
2018/01/20,15:40,0.875,1.453,0.917,1.711,1.162,0.488,0.868,0.833,��쓌,8.7,��
2018/01/20,15:50,0.873,1.455,0.916,1.715,1.161,0.488,0.867,0.833,��쓌,8.4,��
2018/01/20,16:00,0.874,1.454,0.915,1.713,1.161,0.487,0.868,0.831,��쓌,8.5,��
2018/01/20,16:10,0.873,1.454,0.918,1.713,1.161,0.488,0.867,0.832,��쓌,8.0,��
2018/01/20,16:20,0.875,1.455,0.918,1.714,1.160,0.488,0.866,0.834,��쓌,6.7,��
2018/01/20,16:30,0.874,1.456,0.917,1.711,1.162,0.488,0.866,0.833,��쓌,7.1,��
2018/01/20,16:40,0.875,1.455,0.914,1.711,1.162,0.489,0.867,0.834,��,7.3,��
2018/01/20,16:50,0.876,1.455,0.918,1.712,1.162,0.488,0.868,0.833,��,6.1,��
2018/01/20,17:00,0.874,1.454,0.918,1.714,1.162,0.487,0.867,0.832,��쓌,5.0,��
2018/01/20,17:10,0.876,1.454,0.920,1.713,1.163,0.489,0.866,0.833,��쐼,3.2,��
2018/01/20,17:20,0.872,1.454,0.917,1.713,1.160,0.488,0.867,0.832,��쐼,3.0,��
2018/01/20,17:30,0.874,1.455,0.916,1.713,1.158,0.487,0.867,0.833,���쐼,2.3,��
2018/01/20,17:40,0.873,1.455,0.915,1.711,1.162,0.486,0.866,0.833,���k��,3.4,��
2018/01/20,17:50,0.874,1.454,0.915,1.712,1.162,0.487,0.865,0.833,�k��,3.5,��
2018/01/20,18:00,0.876,1.453,0.918,1.713,1.161,0.488,0.866,0.833,���k��,4.3,��
2018/01/20,18:10,0.873,1.455,0.917,1.712,1.162,0.488,0.866,0.831,��,6.6,��
2018/01/20,18:20,0.875,1.457,0.918,1.716,1.163,0.487,0.866,0.834,���쐼,7.4,��
2018/01/20,18:30,0.874,1.456,0.917,1.716,1.163,0.489,0.867,0.833,��,8.3,��
2018/01/20,18:40,0.874,1.452,0.917,1.715,1.163,0.489,0.868,0.831,���쐼,6.9,��
2018/01/20,18:50,0.876,1.456,0.918,1.713,1.163,0.486,0.868,0.831,���쐼,7.3,��
2018/01/20,19:00,0.877,1.453,0.917,1.715,1.163,0.488,0.867,0.833,���쐼,8.4,��
2018/01/20,19:10,0.876,1.454,0.918,1.716,1.162,0.488,0.867,0.834,��,9.1,��
2018/01/20,19:20,0.874,1.456,0.918,1.716,1.161,0.488,0.867,0.833,��,7.6,��
2018/01/20,19:30,0.875,1.454,0.918,1.713,1.163,0.488,0.868,0.833,��,6.8,��
2018/01/20,19:40,0.875,1.452,0.917,1.717,1.161,0.488,0.866,0.833,��,6.5,��
2018/01/20,19:50,0.874,1.453,0.918,1.717,1.163,0.487,0.867,0.833,��,8.3,��
2018/01/20,20:00,0.876,1.453,0.918,1.714,1.163,0.487,0.866,0.834,���쐼,6.3,��
2018/01/20,20:10,0.873,1.453,0.916,1.715,1.161,0.486,0.868,0.834,��,6.7,��
2018/01/20,20:20,0.873,1.456,0.915,1.715,1.162,0.487,0.867,0.833,��,8.5,��
2018/01/20,20:30,0.875,1.451,0.917,1.716,1.162,0.488,0.869,0.833,��,9.7,��
2018/01/20,20:40,0.873,1.453,0.916,1.716,1.160,0.487,0.867,0.832,��,8.2,��
2018/01/20,20:50,0.874,1.454,0.917,1.716,1.160,0.487,0.868,0.834,��,7.8,��
2018/01/20,21:00,0.874,1.453,0.916,1.714,1.163,0.487,0.866,0.832,���k��,8.9,��
2018/01/20,21:10,0.875,1.455,0.918,1.715,1.161,0.487,0.867,0.835,���k��,7.4,��
2018/01/20,21:20,0.874,1.450,0.917,1.717,1.162,0.487,0.868,0.833,��,7.8,��
2018/01/20,21:30,0.873,1.453,0.916,1.717,1.163,0.487,0.867,0.833,��,8.1,��
2018/01/20,21:40,0.874,1.453,0.918,1.716,1.161,0.488,0.869,0.834,���k��,7.2,��
2018/01/20,21:50,0.873,1.453,0.919,1.715,1.160,0.486,0.869,0.834,���k��,5.7,��
2018/01/20,22:00,0.874,1.451,0.918,1.717,1.160,0.487,0.868,0.832,���k��,8.0,��
2018/01/20,22:10,0.871,1.456,0.916,1.716,1.162,0.486,0.867,0.834,��,6.2,��
2018/01/20,22:20,0.874,1.452,0.918,1.715,1.165,0.488,0.867,0.834,��,7.9,��
2018/01/20,22:30,0.873,1.456,0.916,1.718,1.162,0.487,0.867,0.834,��,8.3,��
2018/01/20,22:40,0.873,1.451,0.918,1.717,1.161,0.488,0.866,0.833,���k��,8.4,��
2018/01/20,22:50,0.873,1.453,0.920,1.718,1.164,0.487,0.868,0.833,���k��,9.9,��
2018/01/20,23:00,0.873,1.454,0.919,1.716,1.162,0.487,0.868,0.835,��,9.5,��
2018/01/20,23:10,0.871,1.453,0.919,1.717,1.162,0.489,0.868,0.835,���k��,8.2,��
2018/01/20,23:20,0.874,1.451,0.917,1.716,1.163,0.487,0.866,0.834,���k��,6.5,��
2018/01/20,23:30,0.873,1.450,0.916,1.717,1.162,0.485,0.868,0.834,���k��,5.5,��
2018/01/20,23:40,0.873,1.449,0.917,1.716,1.161,0.486,0.866,0.834,��,5.5,��
2018/01/20,23:50,0.873,1.452,0.917,1.716,1.159,0.487,0.866,0.834,��,6.1,��
